Location: Unspecified
(0.0000°N, 0.0000°E)
Time: 05:55:40
(UTC+00:00)

Courier 1B - Visible Passes

Search period start: 17 August 2017 00:00
Search period end: 27 August 2017 00:00
Orbit: 963 x 1209 km, 28.3° (Epoch: 16 August)

Date Brightness Start Highest point End Pass type
(mag) Time Alt. Az. Time Alt. Az. Time Alt. Az.
17 Aug 9.5 19:07:54 10° S 19:11:50 14° SSE 19:13:37 13° SE visible
17 Aug 10.1 20:59:42 10° SW 21:00:33 13° SW 21:00:33 13° SW visible
18 Aug 9.1 20:06:10 10° SSW 20:10:32 27° S 20:10:32 27° S visible
19 Aug 9.0 19:12:49 10° SSW 19:18:48 24° SSE 19:20:35 22° SE visible
19 Aug 9.8 21:05:41 10° SW 21:07:31 19° SW 21:07:31 19° SW visible
20 Aug 9.4 18:19:43 10° SSW 18:24:36 18° SSE 18:29:33 10° ESE visible
20 Aug 8.5 20:11:56 10° SW 20:17:38 44° SSW 20:17:38 44° SSW visible
21 Aug 8.4 19:18:21 10° SW 19:25:29 39° SSE 19:27:51 32° ESE visible
21 Aug 9.7 21:12:10 10° WSW 21:14:47 23° WSW 21:14:47 23° WSW visible
22 Aug 8.8 18:24:57 10° SSW 18:31:25 29° SSE 18:38:00 10° E visible
22 Aug 8.0 20:18:08 10° WSW 20:25:03 73° WSW 20:25:03 73° WSW visible
23 Aug 7.9 19:24:19 10° SW 19:31:59 67° SSE 19:35:22 37° E visible
23 Aug 9.7 21:19:16 10° W 21:22:19 23° W 21:22:19 23° W visible
24 Aug 9.9 05:06:59 10° NNW 05:10:55 16° NNE 05:14:45 10° ENE visible
24 Aug 8.2 18:30:41 10° SW 18:37:59 49° SSE 18:45:31 10° ENE visible
24 Aug 8.4 20:24:54 10° WSW 20:32:27 54° NNW 20:32:39 54° NNW visible
25 Aug 10.0 04:14:20 10° N 04:16:48 12° NNE 04:19:12 10° NE visible
25 Aug 8.0 19:30:47 10° WSW 19:38:26 73° NNW 19:43:00 28° NE visible
25 Aug 10.0 21:27:08 10° WNW 21:29:57 19° WNW 21:29:57 19° WNW visible
26 Aug 9.3 05:12:01 10° NNW 05:17:49 28° NNE 05:23:22 10° E visible
26 Aug 7.9 18:36:53 10° WSW 18:44:27 85° SSE 18:52:19 10° ENE visible
26 Aug 9.2 20:32:19 10° W 20:39:02 32° NNW 20:40:16 30° N visible
